Location: Arnolds Mill
(42.3415°N, 73.5951°W)
Time: 13:37:22
(UTC+00:00)

STARLINK-34221 - Pass Details

Date: 23 June 2025
Orbit: 301 x 302 km, 53.2° (Epoch: 26 June)

Event Time Altitude Azimuth Distance (km) Brightness Sun altitude
Exits shadow 05:59:57 18° 343° (NNW) 825 5.2 -22.6°
Drops below altitude 10° 06:01:41 10° 25° (NNE) 1,176 6.4 -22.5°
Sets 06:03:58 0° 45° (NE) 1,999 7.5 -22.4°
